This demonstration page uses our WeatherBlox Daily Observations layout. Learn more.

Left ArrowRight Arrow

53.62937, 11.41316

Hourly Observations for March 24, 2021

Temp ( °F °C ) Dew Point ( °F °C ) Humidity (%) Winds ( mph kmh ) Pressure ( in mb ) Visibility ( mi km ) Precip ( " mm )
7:20 am 07:20 Mostly Cloudy 45 7 36 2 71 71 S 6 9 30.18 1022 30 48 N/A
7:50 am 07:50 Mostly Cloudy 45 7 37 3 76 76 S 7 11 30.18 1022 30 48 N/A
8:20 am 08:20 Mostly Cloudy 45 7 36 2 71 71 SSW 8 13 30.18 1022 30 48 N/A
8:50 am 08:50 Mostly Cloudy 46 8 36 2 66 66 SW 9 15 30.18 1022 30 48 N/A
9:20 am 09:20 Mostly Cloudy 46 8 37 3 71 71 S 6 9 30.18 1022 30 48 N/A
9:50 am 09:50 Partly Cloudy 46 8 37 3 71 71 S 7 11 30.18 1022 30 48 N/A
10:20 am 10:20 Mostly Sunny 48 9 39 4 71 71 S 8 13 30.18 1022 30 48 N/A
10:50 am 10:50 Mostly Sunny 50 10 37 3 62 62 SSW 10 17 30.18 1022 30 48 N/A
11:20 am 11:20 Mostly Sunny 50 10 37 3 62 62 SSW 10 17 30.18 1022 30 48 N/A
11:50 am 11:50 Partly Cloudy 52 11 37 3 58 58 SSW 12 19 30.15 1021 30 48 N/A
12:20 pm 12:20 Partly Cloudy 52 11 37 3 58 58 SSW 12 19 30.15 1021 30 48 N/A
12:50 pm 12:50 Partly Cloudy 54 12 39 4 58 58 SSW 9 15 30.15 1021 30 48 N/A
1:20 pm 13:20 Mostly Cloudy 54 12 39 4 58 58 SSW 14 22 30.15 1021 30 48 N/A
1:50 pm 13:50 Partly Cloudy 54 12 37 3 54 54 SSW 12 19 30.15 1021 30 48 N/A
2:20 pm 14:20 Partly Cloudy 54 12 39 4 58 58 SSW 10 17 30.12 1020 30 48 N/A
2:50 pm 14:50 Partly Cloudy 55 13 37 3 51 51 SW 13 20 30.12 1020 30 48 N/A
3:20 pm 15:20 Mostly Sunny 55 13 37 3 51 51 SW 9 15 30.12 1020 30 48 N/A
3:50 pm 15:50 Mostly Sunny 55 13 39 4 55 55 SSW 10 17 30.09 1019 30 48 N/A
4:20 pm 16:20 Mostly Sunny 57 14 39 4 51 51 SSW 8 13 30.09 1019 30 48 N/A
4:50 pm 16:50 Mostly Sunny 57 14 39 4 51 51 SSW 8 13 30.09 1019 30 48 N/A
5:20 pm 17:20 Mostly Sunny 55 13 39 4 55 55 SSW 10 17 30.09 1019 30 48 N/A
5:50 pm 17:50 Mostly Sunny 55 13 39 4 55 55 SSW 8 13 30.09 1019 30 48 N/A
6:20 pm 18:20 Mostly Sunny 54 12 39 4 58 58 S 5 7 30.09 1019 30 48 N/A
6:50 pm 18:50 Mostly Clear 52 11 39 4 62 62 VRB 1 2 30.09 1019 30 48 N/A
7:20 pm 19:20 Mostly Clear 50 10 39 4 67 67 VRB 1 2 30.09 1019 30 48 N/A
7:50 pm 19:50 Mostly Cloudy 48 9 39 4 71 71 VRB 1 2 30.09 1019 30 48 N/A

Powered by AerisWeather